Precipitable_Water
0.22 0.21 0.20 0.20 0.19 0.17 0.16 0.16 0.15 0.15 0.14 0.14 0.13 0.13 0.13 0.14 0.14 0.13 0.13 0.13 0.13 0.13 0.13 0.12 0.12 0.12 0.12 0.13 0.12 0.12 0.11 0.10 0.11 0.13 0.13 0.13 0.14 0.15 0.16 0.16 0.15 0.14 0.14 0.16 0.18 0.16 0.16 0.16 0.16 0.15 0.15 0.13 0.12 0.12 0.12 0.13 0.13 0.13 0.13 0.13 0.13 0.13 0.13
0.22 0.21 0.20 0.20 0.19 0.19 0.17 0.16 0.16 0.15 0.15 0.14 0.14 0.13 0.14 0.14 0.14 0.13 0.13 0.13 0.12 0.13 0.13 0.13 0.12 0.12 0.12 0.12 0.12 0.11 0.10 0.10 0.11 0.12 0.12 0.12 0.13 0.15 0.16 0.16 0.15 0.15 0.15 0.14 0.16 0.16 0.17 0.16 0.17 0.15 0.16 0.14 0.13 0.12 0.12 0.12 0.12 0.12 0.12 0.12 0.12 0.13 0.13
0.23 0.21 0.20 0.20 0.20 0.19 0.18 0.17 0.16 0.16 0.15 0.14 0.14 0.14 0.14 0.14 0.14 0.13 0.13 0.13 0.12 0.12 0.13 0.12 0.12 0.12 0.12 0.12 0.11 0.10 0.09 0.09 0.11 0.11 0.11 0.11 0.13 0.14 0.15 0.16 0.16 0.16 0.15 0.15 0.15 0.16 0.16 0.16 0.16 0.16 0.16 0.15 0.15 0.14 0.13 0.12 0.12 0.12 0.12 0.12 0.13 0.12 0.13
0.23 0.22 0.20 0.20 0.20 0.19 0.19 0.18 0.17 0.17 0.16 0.15 0.14 0.14 0.14 0.14 0.13 0.13 0.13 0.13 0.13 0.12 0.12 0.12 0.12 0.12 0.13 0.12 0.10 0.09 0.09 0.09 0.10 0.11 0.11 0.11 0.12 0.14 0.15 0.16 0.16 0.16 0.15 0.15 0.14 0.16 0.16 0.16 0.16 0.16 0.16 0.16 0.15 0.14 0.13 0.12 0.12 0.12 0.12 0.12 0.12 0.12 0.12
0.23 0.22 0.21 0.20 0.20 0.20 0.19 0.18 0.18 0.17 0.16 0.16 0.15 0.14 0.14 0.13 0.13 0.13 0.13 0.13 0.12 0.12 0.12 0.13 0.13 0.13 0.13 0.11 0.10 0.09 0.08 0.09 0.09 0.10 0.10 0.10 0.12 0.14 0.15 0.16 0.16 0.16 0.16 0.15 0.15 0.16 0.17 0.16 0.16 0.16 0.16 0.16 0.15 0.14 0.14 0.13 0.12 0.12 0.12 0.12 0.13 0.13 0.13
0.23 0.22 0.21 0.20 0.20 0.21 0.20 0.19 0.18 0.17 0.17 0.16 0.15 0.15 0.14 0.14 0.13 0.13 0.13 0.13 0.12 0.12 0.12 0.13 0.14 0.14 0.13 0.11 0.09 0.08 0.08 0.08 0.09 0.09 0.09 0.10 0.12 0.14 0.15 0.15 0.15 0.16 0.16 0.16 0.16 0.16 0.16 0.17 0.16 0.16 0.16 0.16 0.15 0.14 0.13 0.12 0.12 0.12 0.12 0.12 0.12 0.12 0.13
0.24 0.23 0.22 0.21 0.21 0.21 0.21 0.20 0.18 0.17 0.17 0.16 0.16 0.15 0.14 0.13 0.13 0.13 0.12 0.12 0.12 0.13 0.14 0.15 0.15 0.14 0.12 0.10 0.09 0.08 0.08 0.08 0.08 0.09 0.09 0.11 0.12 0.13 0.14 0.14 0.15 0.16 0.16 0.16 0.16 0.17 0.17 0.16 0.17 0.16 0.15 0.15 0.15 0.14 0.14 0.12 0.11 0.10 0.11 0.12 0.11 0.11 0.13
0.24 0.24 0.23 0.22 0.22 0.22 0.22 0.20 0.19 0.18 0.18 0.17 0.16 0.15 0.14 0.13 0.13 0.12 0.11 0.12 0.13 0.14 0.14 0.14 0.14 0.13 0.11 0.09 0.08 0.08 0.08 0.08 0.09 0.09 0.10 0.10 0.11 0.12 0.13 0.13 0.14 0.15 0.16 0.16 0.16 0.17 0.16 0.17 0.16 0.16 0.16 0.15 0.14 0.13 0.12 0.12 0.11 0.09 0.10 0.11 0.12 0.12 0.12
0.26 0.25 0.24 0.24 0.23 0.22 0.22 0.21 0.19 0.18 0.18 0.17 0.16 0.15 0.14 0.13 0.12 0.12 0.13 0.13 0.13 0.14 0.14 0.14 0.13 0.11 0.09 0.09 0.09 0.10 0.10 0.11 0.11 0.10 0.09 0.10 0.11 0.12 0.13 0.13 0.14 0.15 0.16 0.16 0.16 0.16 0.17 0.16 0.16 0.16 0.15 0.14 0.13 0.12 0.11 0.11 0.11 0.10 0.11 0.11 0.11 0.12 0.13
0.27 0.26 0.25 0.25 0.24 0.23 0.22 0.21 0.19 0.19 0.19 0.18 0.17 0.15 0.14 0.13 0.13 0.13 0.14 0.13 0.13 0.14 0.14 0.13 0.12 0.10 0.10 0.09 0.09 0.09 0.09 0.10 0.09 0.09 0.10 0.11 0.11 0.12 0.12 0.13 0.14 0.15 0.15 0.15 0.15 0.16 0.16 0.15 0.15 0.15 0.14 0.14 0.13 0.13 0.12 0.11 0.11 0.10 0.10 0.10 0.11 0.12 0.12
0.27 0.26 0.26 0.26 0.24 0.24 0.22 0.21 0.20 0.20 0.20 0.19 0.19 0.17 0.15 0.14 0.13 0.14 0.14 0.14 0.14 0.13 0.13 0.12 0.11 0.10 0.09 0.09 0.08 0.08 0.08 0.08 0.08 0.09 0.09 0.11 0.12 0.13 0.13 0.13 0.13 0.14 0.15 0.15 0.15 0.16 0.16 0.16 0.15 0.15 0.15 0.14 0.14 0.14 0.12 0.11 0.11 0.10 0.10 0.11 0.10 0.10 0.11
0.28 0.27 0.26 0.26 0.24 0.24 0.23 0.22 0.22 0.21 0.21 0.20 0.19 0.18 0.16 0.15 0.14 0.14 0.14 0.14 0.14 0.14 0.13 0.11 0.10 0.10 0.09 0.09 0.08 0.08 0.08 0.08 0.07 0.07 0.09 0.10 0.11 0.13 0.14 0.14 0.14 0.14 0.15 0.16 0.16 0.16 0.16 0.16 0.16 0.16 0.16 0.15 0.15 0.14 0.13 0.12 0.11 0.11 0.11 0.10 0.10 0.10 0.10
0.29 0.27 0.27 0.26 0.24 0.24 0.23 0.22 0.22 0.22 0.22 0.21 0.20 0.19 0.17 0.16 0.15 0.15 0.14 0.14 0.14 0.13 0.12 0.11 0.10 0.10 0.10 0.09 0.09 0.09 0.08 0.07 0.06 0.07 0.09 0.10 0.11 0.12 0.12 0.12 0.14 0.16 0.17 0.17 0.17 0.17 0.17 0.17 0.16 0.16 0.15 0.16 0.15 0.15 0.14 0.12 0.10 0.10 0.10 0.10 0.10 0.11 0.11
0.30 0.29 0.28 0.26 0.24 0.24 0.24 0.23 0.23 0.22 0.21 0.21 0.21 0.19 0.17 0.16 0.16 0.15 0.14 0.14 0.14 0.13 0.12 0.11 0.10 0.10 0.09 0.09 0.09 0.08 0.08 0.07 0.06 0.08 0.09 0.10 0.10 0.10 0.11 0.11 0.12 0.14 0.17 0.18 0.18 0.17 0.16 0.18 0.17 0.16 0.16 0.16 0.16 0.15 0.13 0.13 0.12 0.11 0.11 0.11 0.11 0.12 0.13
0.30 0.29 0.28 0.26 0.25 0.25 0.25 0.25 0.24 0.22 0.22 0.22 0.21 0.19 0.17 0.16 0.15 0.15 0.14 0.14 0.14 0.13 0.12 0.11 0.11 0.10 0.09 0.09 0.08 0.08 0.08 0.07 0.07 0.08 0.09 0.09 0.09 0.09 0.10 0.10 0.11 0.14 0.16 0.17 0.17 0.17 0.17 0.18 0.18 0.17 0.17 0.17 0.16 0.16 0.15 0.14 0.12 0.11 0.11 0.11 0.12 0.13 0.14
0.31 0.30 0.29 0.26 0.25 0.25 0.26 0.26 0.25 0.23 0.22 0.22 0.21 0.20 0.17 0.16 0.15 0.14 0.14 0.14 0.13 0.13 0.12 0.12 0.11 0.10 0.10 0.09 0.08 0.08 0.08 0.08 0.09 0.10 0.09 0.08 0.08 0.08 0.09 0.10 0.11 0.14 0.17 0.18 0.18 0.17 0.18 0.19 0.19 0.19 0.18 0.18 0.18 0.17 0.16 0.15 0.14 0.12 0.11 0.11 0.10 0.10 0.12
0.31 0.30 0.29 0.26 0.26 0.26 0.27 0.26 0.25 0.24 0.23 0.23 0.22 0.20 0.17 0.15 0.14 0.14 0.14 0.13 0.13 0.13 0.12 0.11 0.11 0.10 0.10 0.09 0.08 0.08 0.08 0.09 0.10 0.10 0.08 0.07 0.07 0.08 0.08 0.09 0.10 0.12 0.15 0.17 0.17 0.18 0.19 0.20 0.19 0.19 0.19 0.18 0.18 0.17 0.16 0.15 0.13 0.11 0.12 0.10 0.09 0.10 0.11
0.31 0.30 0.29 0.27 0.25 0.27 0.27 0.27 0.25 0.24 0.23 0.23 0.22 0.20 0.17 0.15 0.14 0.14 0.14 0.14 0.13 0.13 0.12 0.11 0.11 0.11 0.10 0.09 0.08 0.08 0.09 0.10 0.10 0.09 0.08 0.07 0.07 0.07 0.08 0.08 0.10 0.11 0.12 0.14 0.16 0.17 0.18 0.19 0.19 0.19 0.19 0.18 0.18 0.17 0.16 0.13 0.11 0.11 0.11 0.10 0.10 0.10 0.10
0.31 0.29 0.28 0.27 0.26 0.27 0.28 0.27 0.25 0.25 0.24 0.23 0.22 0.21 0.18 0.16 0.14 0.14 0.13 0.13 0.13 0.12 0.12 0.11 0.11 0.10 0.09 0.09 0.09 0.09 0.10 0.10 0.10 0.09 0.07 0.07 0.07 0.07 0.07 0.08 0.10 0.10 0.10 0.11 0.13 0.16 0.17 0.19 0.19 0.19 0.19 0.18 0.18 0.17 0.16 0.14 0.13 0.12 0.11 0.10 0.10 0.11 0.11
0.31 0.28 0.27 0.27 0.26 0.27 0.28 0.27 0.25 0.25 0.24 0.23 0.22 0.21 0.18 0.16 0.15 0.14 0.13 0.13 0.12 0.11 0.11 0.11 0.10 0.09 0.09 0.09 0.09 0.09 0.10 0.10 0.10 0.09 0.08 0.07 0.07 0.07 0.08 0.10 0.10 0.10 0.10 0.10 0.11 0.14 0.16 0.18 0.19 0.19 0.19 0.18 0.18 0.17 0.16 0.15 0.13 0.13 0.12 0.11 0.11 0.10 0.10
0.30 0.28 0.27 0.26 0.26 0.27 0.27 0.27 0.26 0.25 0.24 0.23 0.22 0.21 0.19 0.17 0.15 0.15 0.14 0.13 0.12 0.12 0.11 0.10 0.10 0.09 0.09 0.09 0.09 0.10 0.10 0.10 0.09 0.09 0.08 0.07 0.07 0.08 0.10 0.10 0.09 0.08 0.09 0.09 0.10 0.12 0.15 0.17 0.18 0.19 0.19 0.18 0.18 0.17 0.17 0.16 0.14 0.13 0.12 0.11 0.11 0.10 0.10
0.27 0.26 0.25 0.25 0.26 0.27 0.27 0.27 0.27 0.26 0.24 0.23 0.23 0.21 0.19 0.17 0.16 0.15 0.14 0.13 0.12 0.12 0.11 0.10 0.09 0.09 0.08 0.09 0.10 0.10 0.10 0.09 0.09 0.08 0.07 0.08 0.09 0.09 0.09 0.08 0.08 0.08 0.08 0.09 0.09 0.11 0.13 0.16 0.18 0.18 0.18 0.18 0.18 0.18 0.17 0.17 0.16 0.13 0.12 0.12 0.11 0.11 0.10
0.25 0.24 0.24 0.24 0.24 0.26 0.26 0.27 0.28 0.26 0.24 0.24 0.23 0.21 0.19 0.18 0.17 0.16 0.16 0.14 0.12 0.11 0.11 0.10 0.09 0.09 0.09 0.09 0.10 0.10 0.10 0.09 0.08 0.08 0.08 0.08 0.08 0.08 0.08 0.08 0.07 0.08 0.08 0.08 0.09 0.10 0.12 0.15 0.18 0.18 0.18 0.19 0.19 0.19 0.18 0.18 0.17 0.15 0.12 0.11 0.11 0.11 0.11
0.24 0.23 0.23 0.23 0.24 0.25 0.26 0.27 0.27 0.26 0.25 0.24 0.23 0.21 0.19 0.18 0.18 0.17 0.16 0.14 0.12 0.12 0.11 0.10 0.09 0.09 0.10 0.11 0.10 0.10 0.09 0.08 0.08 0.08 0.08 0.07 0.07 0.07 0.07 0.07 0.07 0.07 0.08 0.08 0.08 0.09 0.11 0.14 0.17 0.18 0.19 0.19 0.19 0.19 0.19 0.19 0.18 0.17 0.16 0.14 0.14 0.13 0.13
0.22 0.22 0.22 0.23 0.23 0.24 0.25 0.26 0.26 0.26 0.26 0.25 0.23 0.21 0.20 0.18 0.18 0.17 0.16 0.14 0.13 0.12 0.11 0.10 0.11 0.11 0.11 0.10 0.10 0.09 0.08 0.07 0.07 0.08 0.07 0.07 0.06 0.06 0.06 0.07 0.07 0.07 0.07 0.08 0.08 0.08 0.10 0.12 0.16 0.18 0.18 0.19 0.20 0.20 0.20 0.20 0.19 0.19 0.19 0.18 0.17 0.16 0.16
0.22 0.22 0.22 0.22 0.23 0.24 0.25 0.25 0.25 0.25 0.25 0.26 0.24 0.22 0.20 0.18 0.18 0.17 0.16 0.15 0.13 0.12 0.12 0.12 0.11 0.10 0.10 0.10 0.09 0.09 0.08 0.07 0.07 0.07 0.07 0.06 0.06 0.06 0.06 0.06 0.07 0.07 0.07 0.07 0.08 0.08 0.09 0.11 0.14 0.17 0.19 0.19 0.19 0.19 0.20 0.20 0.20 0.20 0.20 0.19 0.18 0.18 0.18
0.22 0.22 0.22 0.22 0.23 0.23 0.24 0.24 0.25 0.25 0.25 0.25 0.24 0.21 0.20 0.18 0.18 0.17 0.16 0.14 0.13 0.12 0.11 0.10 0.10 0.10 0.10 0.09 0.09 0.08 0.07 0.07 0.07 0.06 0.06 0.06 0.06 0.06 0.06 0.06 0.07 0.07 0.07 0.07 0.08 0.08 0.09 0.10 0.13 0.15 0.18 0.19 0.19 0.19 0.20 0.20 0.20 0.20 0.20 0.20 0.20 0.19 0.18
0.23 0.23 0.23 0.23 0.23 0.23 0.23 0.24 0.25 0.25 0.25 0.25 0.23 0.21 0.19 0.18 0.16 0.16 0.15 0.13 0.12 0.12 0.11 0.10 0.10 0.09 0.09 0.09 0.08 0.07 0.07 0.06 0.06 0.06 0.06 0.06 0.06 0.06 0.06 0.06 0.07 0.07 0.07 0.07 0.08 0.08 0.09 0.09 0.11 0.13 0.15 0.18 0.19 0.19 0.20 0.20 0.20 0.20 0.20 0.21 0.21 0.20 0.20
0.25 0.25 0.25 0.24 0.23 0.23 0.23 0.24 0.25 0.25 0.26 0.25 0.23 0.21 0.19 0.17 0.15 0.15 0.14 0.14 0.13 0.12 0.11 0.10 0.09 0.09 0.08 0.08 0.07 0.07 0.07 0.06 0.06 0.06 0.06 0.06 0.06 0.06 0.06 0.06 0.05 0.06 0.06 0.07 0.07 0.08 0.08 0.08 0.09 0.10 0.12 0.15 0.17 0.19 0.20 0.20 0.20 0.21 0.20 0.20 0.21 0.21 0.21
0.27 0.27 0.26 0.25 0.24 0.24 0.24 0.24 0.25 0.26 0.26 0.25 0.24 0.22 0.20 0.18 0.16 0.15 0.15 0.14 0.14 0.12 0.10 0.10 0.09 0.08 0.08 0.08 0.07 0.07 0.06 0.06 0.06 0.05 0.05 0.05 0.06 0.06 0.06 0.05 0.05 0.05 0.06 0.07 0.07 0.08 0.08 0.08 0.08 0.09 0.10 0.12 0.14 0.16 0.18 0.19 0.20 0.20 0.21 0.21 0.21 0.21 0.21
0.29 0.28 0.27 0.26 0.25 0.25 0.25 0.25 0.26 0.25 0.25 0.25 0.24 0.23 0.21 0.19 0.17 0.16 0.16 0.15 0.13 0.12 0.10 0.09 0.09 0.08 0.08 0.08 0.08 0.07 0.06 0.06 0.06 0.05 0.05 0.05 0.05 0.05 0.05 0.05 0.05 0.05 0.05 0.06 0.06 0.07 0.07 0.08 0.08 0.08 0.09 0.10 0.11 0.13 0.15 0.17 0.19 0.20 0.21 0.21 0.21 0.22 0.22
0.29 0.28 0.28 0.27 0.26 0.25 0.25 0.25 0.25 0.25 0.26 0.25 0.25 0.24 0.22 0.20 0.18 0.17 0.16 0.15 0.13 0.11 0.10 0.09 0.09 0.08 0.08 0.08 0.07 0.07 0.07 0.06 0.06 0.06 0.06 0.05 0.05 0.05 0.05 0.05 0.05 0.06 0.05 0.05 0.06 0.06 0.07 0.07 0.07 0.08 0.08 0.08 0.09 0.11 0.13 0.15 0.16 0.18 0.19 0.20 0.21 0.21 0.21
0.29 0.28 0.28 0.28 0.27 0.26 0.25 0.25 0.25 0.26 0.26 0.26 0.26 0.24 0.22 0.20 0.18 0.17 0.16 0.15 0.13 0.11 0.10 0.09 0.09 0.08 0.08 0.08 0.08 0.07 0.07 0.07 0.07 0.06 0.06 0.06 0.06 0.06 0.06 0.06 0.06 0.06 0.06 0.05 0.05 0.06 0.06 0.06 0.07 0.07 0.07 0.08 0.08 0.09 0.10 0.12 0.14 0.15 0.17 0.18 0.19 0.20 0.21
0.29 0.28 0.28 0.27 0.27 0.26 0.26 0.25 0.25 0.26 0.26 0.26 0.26 0.24 0.22 0.20 0.18 0.17 0.16 0.14 0.12 0.11 0.10 0.09 0.09 0.08 0.08 0.08 0.08 0.08 0.08 0.07 0.07 0.07 0.07 0.07 0.07 0.06 0.07 0.07 0.07 0.06 0.06 0.06 0.06 0.05 0.06 0.06 0.06 0.07 0.07 0.07 0.07 0.08 0.09 0.10 0.11 0.13 0.14 0.16 0.17 0.18 0.19
0.28 0.28 0.28 0.27 0.27 0.26 0.26 0.26 0.26 0.26 0.26 0.26 0.26 0.25 0.23 0.20 0.17 0.15 0.15 0.14 0.12 0.11 0.10 0.09 0.09 0.09 0.08 0.08 0.08 0.08 0.08 0.08 0.08 0.07 0.07 0.07 0.07 0.07 0.07 0.07 0.07 0.07 0.06 0.06 0.06 0.06 0.06 0.06 0.06 0.07 0.07 0.07 0.07 0.07 0.08 0.08 0.09 0.11 0.12 0.13 0.15 0.16 0.17
0.28 0.28 0.28 0.28 0.27 0.27 0.26 0.26 0.26 0.26 0.26 0.26 0.26 0.25 0.23 0.18 0.15 0.14 0.14 0.13 0.12 0.12 0.11 0.10 0.09 0.09 0.09 0.09 0.08 0.08 0.08 0.08 0.08 0.08 0.08 0.08 0.08 0.07 0.07 0.07 0.07 0.07 0.07 0.06 0.06 0.06 0.06 0.06 0.06 0.06 0.07 0.07 0.07 0.07 0.07 0.08 0.08 0.09 0.10 0.11 0.12 0.14 0.15
Wind_Speed
27 27 27 27 28 28 28 28 28 29 29 30 30 31 31 32 32 33 35 35 36 36 37 38 38 37 36 36 36 35 36 35 34 33 32 33 32 30 30 29 29 29 29 29 28 27 26 24 23 22 22 24 27 30 34 38 41 45 49 52 54 56 57
26 27 27 27 27 27 27 28 28 29 29 29 30 31 31 32 32 33 34 35 36 36 37 37 37 37 36 36 35 36 36 35 34 33 33 33 31 30 30 29 29 29 28 28 28 27 26 25 24 22 22 23 25 28 32 36 40 43 48 52 54 56 57
26 27 27 27 27 27 27 28 28 28 29 29 30 30 31 31 32 33 34 35 36 36 37 37 37 37 36 36 36 36 36 35 34 33 33 33 31 30 30 29 29 29 28 28 29 28 27 26 25 24 24 23 25 27 30 35 39 43 46 51 54 55 57
26 26 27 27 27 27 27 27 27 28 28 29 29 30 31 31 32 33 34 35 36 36 37 37 37 36 36 36 36 37 36 35 34 33 33 33 32 30 30 29 29 29 29 29 29 29 28 27 27 26 26 25 25 27 30 33 37 41 45 49 53 56 57
26 26 26 27 27 27 27 27 27 27 28 29 29 30 30 31 32 33 34 35 36 36 37 37 36 36 36 36 37 37 36 35 34 34 33 33 32 30 30 29 29 29 29 29 30 31 30 29 28 28 27 26 26 26 28 31 35 40 44 48 52 55 57
26 26 27 27 27 27 27 27 27 27 28 28 29 29 30 30 31 33 34 35 36 36 37 36 36 35 36 37 37 36 36 35 35 34 34 33 32 30 30 29 29 29 30 30 31 31 31 30 29 29 28 26 26 27 28 30 33 37 42 46 50 54 56
26 26 27 27 27 27 27 26 26 27 27 28 28 29 29 30 31 32 34 35 35 36 36 35 35 35 36 37 37 36 35 35 35 34 34 33 32 30 30 30 30 30 30 30 30 30 31 31 30 29 28 27 27 28 28 29 31 35 40 44 48 52 56
26 26 26 26 26 26 26 26 26 27 27 28 28 28 28 29 31 32 33 34 35 35 35 34 34 35 36 36 36 36 35 35 34 34 34 33 32 31 31 30 30 30 30 29 30 31 31 31 30 29 29 28 27 27 26 27 29 32 37 41 46 50 54
26 27 26 26 26 26 26 26 26 26 27 27 28 28 28 29 30 32 33 33 34 34 34 34 34 35 36 36 36 36 35 34 34 35 35 33 32 31 31 30 30 30 29 29 29 30 31 31 30 29 29 28 26 25 25 25 28 30 34 39 44 48 52
27 27 26 26 26 26 26 26 26 26 27 27 27 27 28 29 30 31 32 33 33 34 34 33 34 35 35 36 36 36 36 35 35 36 36 34 33 32 31 30 29 29 28 28 29 30 31 31 30 29 29 28 26 25 24 24 26 28 32 37 42 45 49
27 27 26 26 26 26 26 26 26 27 27 27 27 27 28 28 30 31 31 32 33 33 33 33 33 34 35 35 36 36 36 35 35 36 36 36 34 33 31 30 29 29 28 28 28 29 30 30 30 29 29 28 26 25 23 23 24 26 29 33 38 42 45
27 27 26 26 26 27 27 27 26 26 27 27 27 27 27 28 29 30 31 32 32 33 32 33 33 34 35 35 35 35 35 35 36 37 37 36 35 33 32 30 29 28 28 27 27 29 30 30 30 30 29 29 27 25 23 22 22 24 26 30 34 40 44
28 28 27 27 27 27 27 26 26 26 26 26 27 27 27 28 29 30 31 32 32 32 32 32 33 34 34 35 35 35 35 36 36 36 37 36 34 32 31 30 28 28 27 27 27 28 30 31 30 30 29 29 28 26 23 21 20 22 25 29 33 38 42
28 28 28 28 28 27 27 27 26 26 26 26 26 27 27 28 29 30 31 32 32 32 31 31 32 33 34 35 35 35 36 36 36 36 36 35 33 32 30 28 27 26 26 26 26 28 30 31 29 29 29 29 29 26 23 21 20 20 24 28 32 36 40
29 29 29 29 28 27 28 27 27 26 25 25 26 26 27 27 28 29 30 31 32 32 31 31 32 33 34 35 35 35 36 36 36 36 35 35 33 31 29 26 24 24 24 25 25 27 29 29 28 29 29 29 28 26 23 22 21 21 23 27 30 34 39
30 30 29 29 28 28 28 28 27 26 25 25 26 26 26 27 28 29 30 31 31 31 30 30 31 32 33 34 34 35 36 36 36 36 35 35 33 30 28 25 23 22 23 24 25 26 28 28 28 29 29 29 28 26 23 20 19 19 21 25 28 32 36
30 30 29 28 27 27 28 27 27 26 25 25 25 26 26 26 27 28 29 30 30 30 30 30 31 31 33 34 34 35 36 36 36 36 35 34 32 30 27 25 22 21 22 23 24 26 27 28 28 29 29 29 28 26 22 19 17 16 17 21 25 30 34
30 29 29 28 27 27 27 27 27 26 25 25 25 25 26 26 26 27 28 29 30 30 30 30 30 31 32 33 34 35 35 36 36 35 34 33 31 29 27 24 22 20 21 22 23 25 26 27 27 28 28 28 27 25 21 18 16 14 14 17 22 27 31
29 29 29 28 27 27 27 26 26 26 25 24 25 25 25 26 26 26 28 28 29 29 29 29 30 31 32 33 34 35 35 36 36 35 33 32 31 28 26 24 21 20 20 21 23 25 26 26 26 27 26 26 26 23 19 16 14 13 14 16 20 24 28
29 29 28 28 27 26 26 26 26 25 25 24 25 25 25 25 25 26 27 27 28 28 28 28 29 30 31 33 33 34 35 35 35 34 33 32 30 27 26 24 21 19 19 20 22 24 25 25 25 25 25 24 23 21 18 15 12 11 12 15 19 23 27
29 29 29 28 27 26 26 26 25 25 25 25 24 24 24 25 25 26 26 27 27 27 27 28 28 29 31 32 33 33 34 34 35 34 32 31 29 28 26 24 21 19 18 19 21 23 24 24 25 25 24 23 22 19 17 15 11 9 9 13 17 22 26
28 29 29 28 27 26 26 26 25 25 25 24 24 24 24 24 25 25 25 25 26 26 26 27 27 29 30 31 32 33 33 33 34 33 32 31 30 28 26 23 20 18 17 18 19 21 22 23 24 24 24 23 22 19 16 14 12 8 5 9 15 20 24
28 28 28 28 27 26 25 25 26 25 24 24 23 23 23 24 24 24 24 24 25 25 25 26 27 28 29 30 31 32 32 32 32 32 31 31 30 28 26 23 20 17 16 17 18 19 21 22 23 23 23 22 22 20 17 13 11 8 4 3 10 16 21
28 28 28 28 27 26 26 25 25 25 24 24 24 23 23 23 24 24 23 23 24 24 24 25 26 27 28 29 30 30 31 31 31 31 31 31 30 28 25 22 20 17 15 15 16 18 19 20 21 22 22 22 21 21 18 14 11 9 6 4 5 10 16
28 27 27 27 27 26 26 25 25 25 24 24 24 23 22 23 23 23 23 23 23 23 23 24 25 26 27 28 28 29 29 29 30 30 30 30 29 27 25 22 20 18 15 14 15 16 17 18 20 21 21 21 20 20 18 16 12 10 8 7 6 9 13
27 27 26 27 27 26 26 25 25 24 24 24 23 23 22 22 22 22 22 22 22 22 22 22 24 24 25 26 27 27 27 27 28 28 29 29 28 27 25 22 20 18 15 13 13 14 15 17 18 19 19 20 19 19 19 18 15 12 10 8 8 9 12
28 27 26 26 26 26 26 25 25 24 23 23 22 22 21 21 21 21 21 20 20 20 20 21 22 23 23 24 25 26 26 26 27 27 27 28 27 27 25 23 20 18 15 12 12 12 13 15 16 17 18 18 19 18 18 18 17 14 12 10 9 9 10
28 28 27 26 26 26 26 25 24 23 23 22 21 21 20 20 20 20 19 19 18 18 18 20 21 21 22 23 23 24 24 25 26 26 27 27 27 26 26 24 21 18 15 12 11 11 12 13 14 15 16 17 17 18 17 17 17 16 14 12 11 10 10
28 28 28 27 26 26 26 25 24 23 22 21 21 20 20 19 18 18 18 17 16 16 17 18 19 20 20 21 22 23 24 24 25 26 26 26 26 26 25 24 22 19 16 13 10 10 10 12 12 14 15 15 15 16 16 16 16 15 14 13 12 11 11
28 28 27 27 26 26 26 25 24 22 21 20 20 20 19 18 17 17 16 15 15 15 16 16 17 18 19 20 21 22 23 23 24 25 26 26 26 26 25 25 23 20 17 14 11 9 9 10 11 12 13 14 14 14 15 15 14 14 13 13 12 11 10
28 28 27 26 25 25 26 25 23 22 21 20 19 19 18 17 16 15 14 14 13 14 14 15 16 16 17 18 19 20 21 22 23 24 25 25 26 26 25 24 23 21 19 16 12 10 8 9 9 10 11 12 12 13 13 13 13 12 12 12 11 10 9
27 27 26 25 25 24 24 24 23 22 21 19 18 18 17 16 15 14 13 12 12 12 13 13 14 14 15 16 17 19 20 20 21 23 23 24 25 25 25 24 23 22 20 17 14 11 9 8 8 9 9 10 11 11 12 12 12 11 11 10 10 9 9
26 26 25 25 25 24 24 23 22 21 20 18 18 17 16 15 14 13 12 12 11 11 12 12 12 13 13 14 16 17 18 19 20 21 22 23 23 24 24 24 23 22 21 19 17 14 10 8 8 8 8 9 9 10 10 11 11 11 10 9 8 8 8
25 25 24 24 24 24 23 23 22 21 19 18 17 16 15 14 13 12 11 11 11 10 11 11 11 11 12 13 14 15 17 18 19 20 21 22 22 23 23 23 23 22 21 20 19 16 13 10 8 7 7 8 8 8 9 9 10 10 10 9 8 6 6
22 23 23 22 22 22 22 22 21 20 19 18 17 16 15 13 13 12 11 10 10 10 10 10 10 10 11 11 13 14 16 17 18 19 20 20 21 21 22 22 22 22 21 21 20 18 16 13 10 8 7 7 7 7 7 7 8 8 8 8 7 6 5
21 21 21 21 21 21 21 21 21 20 19 18 18 17 15 13 12 12 11 10 10 9 9 9 9 9 10 10 11 13 14 16 17 18 19 19 20 20 21 21 21 21 20 20 20 19 18 15 12 9 7 7 7 7 6 6 6 6 6 7 7 6 5
Wind_Direction
297 298 301 304 306 307 309 310 311 313 315 317 318 320 322 323 324 325 326 327 328 329 330 330 329 328 327 327 327 326 325 325 325 325 325 325 325 324 323 322 321 319 317 318 319 318 318 317 312 303 290 278 266 256 249 243 238 234 230 227 225 224 224
296 298 301 304 305 307 308 309 311 313 315 316 318 319 321 322 323 324 325 327 328 329 330 330 329 328 327 327 327 326 325 325 324 324 324 324 324 322 321 321 319 317 317 318 319 318 317 316 313 306 296 284 273 263 253 246 240 236 231 228 226 225 224
295 298 300 303 304 306 308 309 311 313 314 315 317 318 320 321 322 324 325 326 327 328 329 330 329 328 328 327 327 327 326 325 324 323 324 324 323 321 320 319 318 316 316 317 318 317 316 315 312 307 301 291 278 268 259 250 243 238 233 229 227 225 224
294 297 299 301 303 305 307 309 311 313 314 315 316 318 319 320 322 323 324 325 326 327 329 330 330 329 328 327 327 327 327 326 324 323 323 323 322 320 318 318 316 315 315 316 317 317 315 314 312 308 303 295 285 273 263 253 245 239 235 231 227 225 224
292 295 298 300 302 304 306 309 311 312 314 315 316 317 318 320 322 323 324 325 325 326 328 329 329 329 329 327 327 327 328 327 325 323 323 323 322 320 317 317 316 315 315 315 315 316 316 314 312 309 304 298 290 279 268 257 248 241 236 232 228 225 224
290 293 297 299 301 303 306 309 311 313 314 315 316 317 318 320 322 323 324 325 325 326 327 328 329 329 329 328 327 327 327 327 326 324 323 322 320 318 316 315 315 315 314 313 313 315 317 317 315 312 308 302 294 285 273 262 252 243 237 233 229 226 223
288 292 295 298 300 302 305 309 312 313 314 315 316 316 317 319 322 323 324 325 325 326 327 328 328 329 329 329 328 328 328 328 328 326 324 321 319 317 316 314 314 315 314 313 313 316 317 318 317 315 311 306 299 289 277 266 256 246 237 232 229 225 223
287 291 294 297 299 302 304 308 311 313 314 315 315 316 317 319 321 323 324 325 326 328 328 328 328 329 330 330 330 329 328 328 328 328 325 322 320 317 315 314 314 314 314 313 314 317 319 319 318 316 314 310 303 294 282 269 258 248 239 232 228 225 222
286 289 292 294 298 301 303 306 309 312 313 314 315 316 317 319 321 322 324 326 327 328 328 328 329 330 331 331 331 330 329 328 328 329 328 325 321 316 314 313 313 313 314 315 317 319 321 321 320 318 317 313 306 298 288 274 262 251 241 234 229 225 222
285 287 289 291 295 298 301 304 307 310 311 312 313 315 316 318 320 322 324 326 327 328 328 329 330 331 331 331 332 331 330 329 329 330 329 327 322 318 315 313 312 312 314 315 318 320 322 322 321 319 318 316 309 302 293 281 266 254 244 234 228 225 223
283 285 287 289 292 296 299 302 304 306 308 310 311 313 316 317 319 321 324 326 327 328 328 329 330 331 332 332 333 333 332 330 330 330 329 327 323 320 316 312 311 312 314 316 319 321 323 323 323 322 321 319 314 305 297 286 270 256 245 235 227 224 222
281 283 285 287 290 294 297 300 302 302 304 307 309 311 314 316 318 320 323 325 326 327 328 330 331 332 332 333 334 334 334 332 331 330 329 327 324 321 317 313 311 313 315 317 319 322 324 324 325 324 323 321 318 309 301 291 275 260 248 237 228 224 221
280 281 283 286 288 292 295 298 298 299 302 305 308 310 313 316 317 319 322 324 326 328 329 330 331 332 332 333 334 335 335 334 332 331 330 329 326 323 319 315 313 313 315 317 320 323 325 325 326 325 323 323 320 313 305 296 281 263 249 238 229 224 221
278 280 281 284 286 289 293 295 296 297 300 303 306 309 312 315 316 318 321 323 325 327 329 330 331 332 333 334 335 336 336 336 334 333 332 332 328 325 322 318 315 314 316 318 320 322 324 325 326 325 324 324 321 314 305 296 285 267 251 240 231 225 222
277 279 281 282 284 287 291 293 294 296 299 301 303 307 311 314 316 317 320 323 325 327 328 330 332 332 333 334 335 336 337 337 336 335 334 334 330 327 324 321 317 316 318 320 321 323 325 327 328 327 326 325 323 317 307 295 285 270 254 243 235 228 223
276 278 280 281 283 286 289 291 292 294 296 298 301 305 309 312 315 317 319 322 325 327 328 330 332 332 333 334 335 336 337 338 337 337 336 335 332 329 327 324 320 320 321 323 324 326 329 330 330 328 327 326 323 318 311 301 288 272 254 242 234 227 222
275 277 279 280 282 285 288 290 291 292 294 296 298 303 307 310 313 316 318 321 324 326 329 330 331 333 334 335 336 336 337 339 339 339 339 337 334 331 329 327 324 323 325 327 327 329 331 333 332 329 327 326 323 319 313 306 295 277 255 239 229 223 219
274 276 278 279 281 283 287 289 290 290 292 294 296 300 305 309 312 315 318 321 324 326 329 330 331 333 334 335 336 337 338 340 341 340 340 340 337 333 331 330 327 325 328 331 332 333 335 336 336 333 331 330 328 323 317 308 296 277 255 238 226 220 216
274 275 277 278 280 282 285 287 289 288 290 293 295 298 303 307 310 313 317 320 323 325 328 330 331 333 334 335 336 337 339 341 342 342 342 342 339 334 333 333 330 327 329 334 336 338 339 340 340 339 338 336 334 332 327 317 299 277 254 237 226 218 214
273 274 276 277 279 281 283 285 287 288 289 291 293 296 302 305 308 311 315 319 322 324 327 329 331 333 334 335 336 337 339 342 343 343 343 343 341 336 334 335 333 330 331 336 339 340 342 343 344 345 346 345 342 340 339 332 314 284 256 236 225 219 214
272 273 275 276 277 280 282 283 285 286 287 289 291 294 299 303 306 309 314 317 320 323 325 328 331 332 334 335 336 338 340 343 344 344 344 344 342 339 337 337 335 333 334 338 341 343 345 347 348 349 351 353 351 347 346 346 338 310 265 235 223 218 214
272 273 274 275 276 278 280 282 284 285 286 286 289 292 297 301 304 307 311 315 319 322 324 328 330 332 334 335 336 338 341 344 345 345 345 345 344 342 340 339 338 335 336 340 345 347 348 350 351 352 355 358 358 355 352 353 353 343 290 232 218 213 210
271 272 273 275 275 276 278 281 282 284 285 285 287 290 294 298 301 305 309 314 317 320 323 327 330 332 334 335 337 339 343 345 345 346 346 347 346 345 343 342 340 338 338 342 347 350 352 354 355 356 358 2 3 2 1 2 5 11 19 194 202 203 204
269 270 271 273 274 275 276 279 281 282 283 283 285 288 292 296 299 303 308 312 315 318 323 327 330 331 333 335 338 341 343 346 346 347 348 349 349 348 346 344 343 342 340 343 349 353 355 357 358 359 1 5 8 9 12 16 20 26 42 88 156 183 192
268 268 269 271 273 274 274 276 278 280 281 281 283 286 290 294 298 301 305 310 314 318 322 327 329 331 333 336 339 341 344 346 347 348 350 352 352 351 349 347 347 346 343 345 351 355 358 360 1 2 5 8 12 17 22 28 33 39 48 72 112 150 170
268 268 269 270 272 273 273 274 276 278 280 280 281 284 288 292 295 299 303 308 312 317 322 327 329 331 335 338 340 342 345 348 349 351 352 354 355 354 353 352 351 350 348 347 351 356 360 2 3 5 9 13 18 23 28 33 38 47 57 73 99 129 151
268 267 267 269 270 271 272 273 274 277 278 279 280 283 286 290 294 297 301 306 310 316 322 327 329 332 336 339 341 343 346 349 351 353 354 356 357 358 357 356 355 354 352 350 351 356 1 5 6 8 13 18 23 27 31 35 40 49 60 74 95 121 140
269 267 266 267 267 268 270 272 273 274 276 277 278 280 284 288 292 295 298 303 308 316 322 327 329 333 337 340 341 344 348 351 353 355 357 357 358 360 0 360 359 359 358 355 352 355 3 7 9 11 15 20 25 29 33 38 42 48 56 67 85 109 128
270 269 267 266 266 266 268 270 271 271 273 275 276 276 279 284 288 291 295 300 306 315 322 326 330 334 338 340 342 346 350 353 355 357 359 360 0 1 2 3 3 2 1 359 355 356 3 9 11 13 15 20 25 30 34 39 43 48 54 61 73 91 108
270 269 268 268 267 266 267 269 269 268 270 273 271 270 274 279 283 287 292 296 304 313 320 325 330 335 338 340 344 348 352 354 356 359 0 1 3 4 5 5 6 5 4 3 1 358 2 8 12 13 16 20 24 29 34 38 42 47 54 59 67 78 89
268 267 267 267 267 266 266 267 267 266 268 270 267 266 269 274 278 283 288 293 301 311 317 323 330 334 337 340 344 349 353 356 358 0 2 3 5 6 8 8 9 9 8 8 6 2 2 7 12 14 16 20 23 26 31 36 40 45 52 58 65 73 78
266 265 264 263 264 264 265 265 264 263 264 265 263 261 264 270 274 279 283 289 298 308 314 321 328 332 335 340 345 350 354 357 360 2 5 6 7 8 10 11 12 12 12 12 11 8 4 6 11 14 16 19 22 24 28 32 37 42 48 55 63 72 77
264 262 261 262 261 261 262 262 261 260 260 260 258 257 260 266 270 274 278 285 294 303 310 318 326 330 333 339 344 349 354 358 0 3 6 8 9 10 11 13 15 16 17 17 16 14 11 8 10 14 16 18 21 24 28 31 34 38 44 51 61 70 75
263 260 259 260 261 260 259 258 256 256 255 254 253 252 255 261 266 269 274 281 289 296 305 313 321 326 330 336 343 349 354 358 0 3 6 8 9 10 12 14 16 18 20 20 20 20 19 15 13 15 17 17 19 23 27 30 32 36 40 46 55 67 74
263 259 256 257 259 258 257 255 253 251 250 249 248 246 248 255 262 265 269 276 283 289 298 307 315 321 326 333 341 347 353 356 359 2 4 6 8 10 12 13 15 18 20 21 22 22 22 21 18 17 18 20 20 21 25 28 30 34 39 42 48 57 66
263 260 258 256 257 256 254 252 249 246 244 243 241 240 243 251 256 258 262 269 274 281 291 301 309 315 321 329 338 345 350 354 357 359 2 4 6 9 10 11 13 16 18 20 21 22 22 23 22 19 18 20 22 21 22 24 27 32 37 41 45 50 55